SCP
0 0 0 0 0 0 0 0 0 0 0 0 0 0 0 0 0 0 0 0 0 0 0 0 0 0 0 0 0 0 0 0 0 0 0 0 0 0 0 0 0 0 0 0
0 0 0 0 0 0 0 0 0 0 0 0 0 0 0 0 0 0 0 0 0 0 0 0 0 0 0 0 0 0 0 0 0 0 0 0 0 0 0 0 0 0 0 0
0 0 0 0 0 0 0 0 0 0 0 0 0 0 0 0 0 0 0 0 0 0 0 0 0 0 0 0 0 0 0 0 0 0 0 0 0 0 0 0 0 0 0 0
0 0 0 0 0 0 0 0 0 0 0 0 0 0 0 0 0 0 0 0 0 0 0 0 0 0 0 0 0 0 0 0 0 0 0 0 0 0 0 0 0 0 0 0
0 0 0 0 0 0 0 0 0 0 0 0 0 0 0 0 0 0 0 0 0 0 0 0 0 0 0 0 0 0 0 0 0 0 0 0 0 0 0 0 0 0 0 0
0 0 0 0 0 0 0 0 0 0 0 0 0 0 0 0 0 0 0 0 0 0 0 0 0 0 0 0 0 0 0 0 0 0 0 0 0 0 0 0 0 0 0 0
0 0 0 0 0 0 0 0 0 0 0 0 0 0 0 0 0 0 0 0 0 0 0 0 0 0 0 0 0 0 0 0 0 0 0 0 0 0 0 0 0 0 0 0
0 0 0 0 0 0 0 0 0 0 0 0 0 0 0 0 0 0 0 0 0 0 0 0 0 0 0 0 0 0 0 0 0 0 0 0 0 0 0 0 0 0 0 0
0 0 0 0 0 0 0 0 0 0 0 0 0 0 0 0 0 0 0 0 0 0 0 0 0 0 0 0 0 0 0 0 0 0 0 0 0 0 0 0 0 0 0 0
0 0 0 0 0 0 0 0 0 0 0 0 0 0 0 0 0 0 0 0 0 0 0 0 0 0 0 0 0 0 0 0 0 0 0 0 0 0 0 0 0 0 0 0
0 0 0 0 0 0 0 0 0 0 0 0 0 0 0 0 0 0 0 0 0 0 0 0 0 0 0 0 0 0 0 0 0 0 0 0 0 0 0 0 0 0 0 0
0 0 0 0 0 0 0 0 0 0 0 0 0 0 0 0 0 0 0 0 0 0 0 0 0 0 0 0 0 0 0 0 0 0 0 0 0 0 0 0 0 0 0 0
0 0 0 0 0 0 0 0 0 0 0 0 0 0 0 0 0 0 0 0 0 0 0 0 0 0 0 0 0 0 0 0 0 0 0 0 0 0 0 0 0 0 0 0
0 0 0 0 0 0 0 0 0 0 0 0 0 0 0 0 0 0 0 0 0 0 0 0 0 0 0 0 0 0 0 0 0 0 0 0 0 0 0 0 0 0 0 0
0 0 0 0 0 0 0 0 0 0 0 0 0 0 0 0 0 0 0 0 0 0 0 0 0 0 0 0 0 0 0 0 0 0 0 0 0 0 0 0 0 0 0 0
0 0 0 -0 -0 -0 -0 -0 -0 -0 -0 -0 -0 0 0 0 0 0 0 0 0 0 0 0 0 0 0 0 0 0 0 0 0 0 0 0 0 0 0 0 0 0 0 0
-0 -0 -0 -0 -0 -0 -0 -0 -0 -0 -0 -0 -0 0 0 0 0 0 0 0 0 0 0 0 0 0 0 0 0 0 0 0 0 0 0 0 0 0 0 0 0 0 0 0
-0 -0 0 0 0 0 0 -0 -0 -0 0 0 0 0 0 0 0 0 0 0 0 0 0 0 0 0 0 0 0 0 0 0 0 0 0 0 0 0 0 0 0 0 0 0
0 -0 -0 -0 -0 0 0 0 0 0 0 0 0 0 0 0 0 0 0 0 0 0 0 0 0 0 0 0 0 0 0 0 0 0 0 0 0 0 0 0 0 0 0 0
-0 -0 -0 -0 0 0 0 0 0 0 0 0 0 0 0 0 0 0 0 0 0 0 0 0 0 0 0 0 0 0 0 0 0 0 0 0 0 0 0 0 0 0 0 0
0 0 0 0 0 0 0 0 0 0 0 0 0 0 0 0 0 0 0 0 0 0 0 0 0 0 0 0 0 0 0 0 0 0 0 0 0 0 0 0 0 0 0 0
0 0 0 0 0 0 0 0 0 0 0 0 0 0 0 0 0 0 0 0 0 0 0 0 0 0 0 0 0 0 0 0 0 0 0 0 0 0 0 0 0 0 0 0
0 0 0 0 0 0 0 0 0 0 0 0 0 0 0 0 0 0 0 0 0 0 0 0 0 0 0 0 0 0 0 0 0 0 0 0 0 0 0 0 0 0 0 0
0 0 0 0 0 0 0 0 0 0 0 0 0 0 0 0 0 0 0 0 0 0 0 0 0 0 0 0 0 0 0 0 0 0 0 0 0 0 0 0 0 0 0 0
0 0 0 0 0 0 0 0 0 0 0 0 0 0 0 0 0 0 0 0 0 0 0 0 0 0 0 0 0 0 0 0 0 0 0 0 0 0 0 0 0 0 0 0
0 0 0 0 0 0 0 0 0 0 0 0 0 0 0 0 0 0 0 0 0 0 0 0 0 0 0 0 0 0 0 0 0 0 0 0 0 0 0 0 0 0 0 0
0 0 0 0 0 0 0 0 0 0 0 0 0 0 0 0 0 0 0 0 0 0 0 0 0 0 0 0 0 0 0 0 0 0 0 0 0 0 0 0 0 0 0 0
Wind_Speed_500mb
8 7 4 5 24 19 19 11 9 11 12 8 8 14 32 42 56 57 52 42 35 34 36 33 28 22 18 13 9 7 9 17 25 31 33 34 33 33 33 35 38 40 39 41
14 16 12 6 11 14 9 10 11 15 8 6 9 20 28 37 52 58 56 48 40 38 38 37 31 25 19 16 12 10 17 24 27 30 30 30 30 31 33 34 37 41 44 46
2 6 10 6 11 9 7 4 14 10 11 19 8 16 21 27 35 45 48 49 48 46 43 38 31 24 18 14 12 18 24 27 28 28 29 29 30 32 35 38 40 42 44 46
5 1 5 8 6 2 8 9 9 11 13 19 18 17 20 23 27 28 32 41 45 44 43 36 29 22 16 13 19 24 26 26 26 28 29 31 33 35 37 39 42 44 47 51
9 4 7 7 7 12 10 12 10 14 14 22 21 15 9 15 19 20 22 27 31 34 34 30 22 15 16 21 24 25 25 26 28 28 30 33 35 37 39 41 42 45 49 52
4 10 9 7 1 5 7 7 20 24 22 22 25 7 7 18 16 18 19 22 28 32 27 20 18 19 22 24 25 25 26 29 29 32 34 36 39 40 41 43 44 44 46 49
4 4 13 10 5 9 11 11 18 28 29 32 10 8 11 20 21 21 21 25 26 24 22 21 20 21 24 25 26 26 29 31 33 35 39 41 41 42 42 42 44 45 45 47
5 8 8 8 8 14 4 22 29 33 31 25 21 17 21 20 20 21 21 22 22 21 19 20 22 26 27 26 26 29 33 34 36 38 39 39 41 42 42 43 43 45 45 44
9 8 2 13 4 4 25 36 31 34 29 24 20 16 16 15 17 18 20 22 22 21 22 24 27 29 27 26 30 33 34 37 38 39 39 41 43 44 43 43 45 47 47 47
6 2 8 15 4 17 26 27 27 24 18 12 9 10 12 17 22 26 28 26 25 26 27 29 32 29 28 30 33 35 36 38 39 40 43 43 43 42 42 43 44 47 47 47
6 11 4 14 20 21 23 21 22 17 13 7 12 14 17 25 28 30 31 31 32 33 34 34 37 33 33 34 36 38 39 40 42 44 44 44 43 41 41 44 45 45 44 45
8 5 8 4 30 28 27 21 17 20 21 18 19 21 23 24 28 35 38 39 39 37 40 39 39 38 38 41 40 43 43 45 46 46 45 44 42 38 40 41 42 41 39 43
4 7 9 16 15 16 18 21 22 22 21 19 18 23 28 31 33 37 40 43 41 40 39 43 45 44 45 47 45 47 48 49 49 49 46 44 41 39 37 34 36 37 39 43
19 7 9 16 7 7 7 12 16 15 19 26 32 34 33 36 36 38 41 37 39 43 45 47 48 46 50 51 51 51 51 51 50 47 44 42 39 38 38 36 35 33 37 46
26 38 22 17 18 17 20 26 30 36 40 36 33 33 34 36 38 37 36 43 47 50 50 48 50 50 54 54 54 53 53 51 48 45 40 37 36 36 36 35 34 37 41 43
9 20 35 39 32 29 30 32 33 29 31 34 36 36 36 40 41 43 47 52 54 52 46 52 55 51 54 54 54 53 51 49 45 39 36 33 34 34 35 34 35 40 46 55
5 15 24 20 18 16 20 21 22 19 22 27 26 30 38 43 49 51 49 50 52 54 56 57 54 53 53 52 50 48 47 43 38 33 31 31 32 33 32 33 38 43 49 54
19 6 8 4 6 13 16 19 22 23 25 25 30 33 37 41 45 45 46 51 59 62 60 57 54 53 52 49 47 45 41 37 32 29 29 30 31 29 30 35 41 47 52 53
16 13 13 11 14 15 16 18 21 25 27 32 35 38 42 46 50 54 56 61 64 65 59 55 54 52 49 47 44 40 35 31 28 28 29 29 27 28 31 37 43 47 52 55
13 9 10 11 15 18 21 22 26 29 29 35 40 47 54 57 60 63 66 69 68 64 59 54 51 47 45 43 37 32 29 27 27 29 28 26 26 29 35 41 46 50 52 53
10 8 6 7 10 17 24 30 37 42 47 55 60 63 64 65 62 61 65 66 59 56 52 51 51 46 40 34 29 26 24 24 26 26 25 26 28 33 39 44 48 52 55 55
13 13 19 29 37 42 46 50 55 59 61 61 61 62 63 63 58 58 57 58 53 51 48 44 41 36 30 26 23 22 21 25 25 26 25 26 31 36 41 46 51 53 55 57
35 38 37 40 44 49 52 54 58 63 65 63 62 60 61 60 59 59 56 49 47 43 42 37 32 27 24 22 21 20 24 23 25 23 25 29 34 40 45 50 53 57 61 65
47 46 49 50 54 58 63 61 63 64 64 61 58 56 55 54 53 53 53 49 45 40 34 30 27 25 23 20 21 24 24 25 22 24 28 32 37 43 48 53 58 62 68 72
48 51 51 53 58 61 61 60 61 57 54 54 51 52 52 51 51 49 45 40 35 31 27 25 25 23 22 23 26 27 25 23 22 25 30 35 40 46 50 57 64 70 72 69
50 51 51 50 48 45 45 43 45 44 46 48 44 45 45 45 44 42 39 33 28 27 26 24 24 23 26 29 27 25 22 21 22 27 33 38 44 49 57 63 64 64 64 65
50 47 42 38 34 36 37 40 47 48 47 48 49 46 43 39 36 34 31 28 27 27 26 26 25 27 29 27 25 22 20 21 24 30 36 42 48 55 58 58 59 61 63 63
Wind_Direction_500mb
110 51 47 104 155 156 179 184 144 188 156 205 202 163 170 174 173 171 173 180 190 198 199 203 207 206 212 218 235 244 284 304 310 317 321 324 328 330 333 335 336 336 335 334
27 22 76 99 164 140 122 123 80 107 80 135 98 119 137 161 176 182 189 201 211 211 209 207 206 208 216 227 228 272 303 312 320 323 327 329 330 331 332 333 335 339 341 342
98 353 27 5 210 173 131 142 139 156 189 157 138 134 146 152 174 194 206 214 218 217 214 208 207 214 224 229 266 301 313 319 323 324 321 320 324 329 335 339 341 340 340 340
142 300 130 245 281 271 140 154 136 106 134 155 165 157 164 175 180 198 213 220 222 216 207 204 209 218 226 257 295 305 310 312 311 310 314 321 328 333 335 336 337 338 339 341
129 146 291 323 207 159 151 232 199 139 135 138 142 148 207 209 214 216 219 215 211 202 202 205 213 226 249 276 292 299 300 300 306 312 319 327 329 327 329 330 333 337 338 338
133 118 181 249 195 160 87 285 190 181 170 158 153 168 243 196 190 188 181 180 186 191 197 211 226 242 270 288 293 291 297 304 311 319 321 321 321 322 325 327 329 333 336 335
82 113 288 245 166 144 107 243 158 184 178 166 157 183 160 168 164 165 171 181 187 197 207 218 243 269 282 287 285 292 303 311 316 316 314 314 315 317 321 325 327 329 331 331
81 72 281 170 110 172 209 134 138 136 139 144 135 136 152 166 178 186 194 197 199 205 223 251 268 278 282 282 290 306 312 311 307 304 307 311 315 318 321 322 323 324 324 325
172 201 280 183 269 236 152 144 140 135 133 134 136 148 166 184 203 208 205 210 217 236 256 270 277 282 283 293 301 303 299 296 299 306 312 315 316 317 317 319 320 320 322 324
70 265 243 210 200 151 152 149 148 148 143 143 148 179 207 221 225 226 225 231 246 261 273 279 281 275 279 282 289 292 295 301 305 308 311 313 311 312 314 316 317 320 323 326
271 255 264 236 206 173 160 162 171 180 205 232 222 232 246 244 244 244 247 252 262 271 275 277 271 269 276 284 290 292 296 298 300 303 305 307 309 311 313 316 318 322 324 327
214 204 109 182 193 191 196 202 211 231 242 250 248 258 254 252 253 254 255 256 263 267 273 277 270 272 277 281 287 291 292 294 296 300 303 305 305 307 312 314 317 320 323 326
51 86 127 135 129 151 192 222 236 238 239 244 257 272 272 267 262 260 255 254 258 273 274 273 270 272 275 281 286 287 288 290 294 297 299 301 303 304 304 308 314 318 322 324
227 202 197 170 179 187 221 219 221 247 267 286 287 281 276 269 264 258 256 261 268 270 275 274 271 275 276 279 282 284 286 289 293 294 296 298 301 303 306 311 313 313 320 325
232 228 234 217 230 244 252 251 257 266 276 279 278 279 273 274 272 271 263 267 271 273 280 280 277 275 275 279 283 285 287 288 288 289 293 296 300 305 309 312 312 316 320 320
195 217 228 237 250 258 255 262 269 274 278 276 274 272 275 273 271 269 265 269 273 280 280 275 275 276 276 278 281 283 283 284 284 287 289 293 299 302 304 306 311 318 323 323
218 215 215 237 260 273 274 271 276 286 282 283 296 284 273 273 275 279 281 279 276 276 275 274 273 270 270 275 280 279 279 279 281 283 286 292 293 297 300 307 315 320 323 327
207 171 120 195 257 271 275 277 278 284 290 288 281 285 287 288 291 290 284 274 270 271 272 272 270 266 270 276 277 277 277 276 277 277 281 284 289 294 302 310 314 318 323 327
201 218 249 267 278 282 288 293 293 289 290 290 289 292 292 290 292 288 280 274 272 273 277 274 268 267 271 273 273 273 271 271 271 273 277 284 287 293 301 307 313 317 319 322
206 235 254 274 283 292 295 302 299 302 310 308 306 303 299 297 292 287 282 279 279 279 278 272 268 268 269 268 265 262 261 261 265 272 281 283 288 297 304 308 313 317 320 321
64 41 7 342 329 324 314 306 303 303 300 300 298 297 296 296 297 292 289 288 290 282 275 270 269 269 267 262 260 257 254 258 267 274 273 277 288 297 304 310 315 317 318 320
61 11 336 319 311 306 305 303 300 298 299 301 302 303 301 301 299 295 292 289 286 279 274 272 270 265 260 257 251 247 252 260 265 263 269 284 293 299 307 312 314 314 317 322
328 323 318 312 307 303 297 296 297 298 300 303 303 303 301 300 297 294 292 286 281 277 273 268 262 255 251 243 236 246 253 258 258 265 278 289 298 307 312 314 315 318 321 322
317 312 307 302 297 296 298 301 301 302 303 303 302 302 300 297 292 289 287 285 282 279 273 262 253 245 234 230 240 242 248 250 258 273 286 297 305 311 314 316 319 321 320 319
298 296 296 296 297 301 302 303 305 310 309 307 305 300 298 297 296 295 290 285 280 269 258 248 237 221 233 234 233 244 241 246 263 281 295 303 310 313 315 319 322 321 319 317
301 299 301 300 301 302 304 307 307 310 307 308 308 303 301 297 295 292 288 282 270 258 250 236 219 229 226 229 237 232 240 258 277 292 302 309 314 318 323 323 320 317 316 317
303 307 305 304 306 307 314 320 321 324 322 320 319 317 311 305 301 293 282 270 258 247 232 219 230 225 230 231 225 232 250 271 290 301 309 314 321 324 322 319 317 319 320 322
Wind_Speed_850mb
8 7 4 5 24 19 19 11 9 11 12 8 8 14 32 42 56 57 52 42 35 34 36 33 28 22 18 13 9 7 9 17 25 31 33 34 33 33 33 35 38 40 39 41
14 16 12 6 11 14 9 10 11 15 8 6 9 20 28 37 52 58 56 48 40 38 38 37 31 25 19 16 12 10 17 24 27 30 30 30 30 31 33 34 37 41 44 46
2 6 10 6 11 9 7 4 14 10 11 19 8 16 21 27 35 45 48 49 48 46 43 38 31 24 18 14 12 18 24 27 28 28 29 29 30 32 35 38 40 42 44 46
5 1 5 8 6 2 8 9 9 11 13 19 18 17 20 23 27 28 32 41 45 44 43 36 29 22 16 13 19 24 26 26 26 28 29 31 33 35 37 39 42 44 47 51
9 4 7 7 7 12 10 12 10 14 14 22 21 15 9 15 19 20 22 27 31 34 34 30 22 15 16 21 24 25 25 26 28 28 30 33 35 37 39 41 42 45 49 52
4 10 9 7 1 5 7 7 20 24 22 22 25 7 7 18 16 18 19 22 28 32 27 20 18 19 22 24 25 25 26 29 29 32 34 36 39 40 41 43 44 44 46 49
4 4 13 10 5 9 11 11 18 28 29 32 10 8 11 20 21 21 21 25 26 24 22 21 20 21 24 25 26 26 29 31 33 35 39 41 41 42 42 42 44 45 45 47
5 8 8 8 8 14 4 22 29 33 31 25 21 17 21 20 20 21 21 22 22 21 19 20 22 26 27 26 26 29 33 34 36 38 39 39 41 42 42 43 43 45 45 44
9 8 2 13 4 4 25 36 31 34 29 24 20 16 16 15 17 18 20 22 22 21 22 24 27 29 27 26 30 33 34 37 38 39 39 41 43 44 43 43 45 47 47 47
6 2 8 15 4 17 26 27 27 24 18 12 9 10 12 17 22 26 28 26 25 26 27 29 32 29 28 30 33 35 36 38 39 40 43 43 43 42 42 43 44 47 47 47
6 11 4 14 20 21 23 21 22 17 13 7 12 14 17 25 28 30 31 31 32 33 34 34 37 33 33 34 36 38 39 40 42 44 44 44 43 41 41 44 45 45 44 45
8 5 8 4 30 28 27 21 17 20 21 18 19 21 23 24 28 35 38 39 39 37 40 39 39 38 38 41 40 43 43 45 46 46 45 44 42 38 40 41 42 41 39 43
4 7 9 16 15 16 18 21 22 22 21 19 18 23 28 31 33 37 40 43 41 40 39 43 45 44 45 47 45 47 48 49 49 49 46 44 41 39 37 34 36 37 39 43
19 7 9 16 7 7 7 12 16 15 19 26 32 34 33 36 36 38 41 37 39 43 45 47 48 46 50 51 51 51 51 51 50 47 44 42 39 38 38 36 35 33 37 46
26 38 22 17 18 17 20 26 30 36 40 36 33 33 34 36 38 37 36 43 47 50 50 48 50 50 54 54 54 53 53 51 48 45 40 37 36 36 36 35 34 37 41 43
9 20 35 39 32 29 30 32 33 29 31 34 36 36 36 40 41 43 47 52 54 52 46 52 55 51 54 54 54 53 51 49 45 39 36 33 34 34 35 34 35 40 46 55
5 15 24 20 18 16 20 21 22 19 22 27 26 30 38 43 49 51 49 50 52 54 56 57 54 53 53 52 50 48 47 43 38 33 31 31 32 33 32 33 38 43 49 54
19 6 8 4 6 13 16 19 22 23 25 25 30 33 37 41 45 45 46 51 59 62 60 57 54 53 52 49 47 45 41 37 32 29 29 30 31 29 30 35 41 47 52 53
16 13 13 11 14 15 16 18 21 25 27 32 35 38 42 46 50 54 56 61 64 65 59 55 54 52 49 47 44 40 35 31 28 28 29 29 27 28 31 37 43 47 52 55
13 9 10 11 15 18 21 22 26 29 29 35 40 47 54 57 60 63 66 69 68 64 59 54 51 47 45 43 37 32 29 27 27 29 28 26 26 29 35 41 46 50 52 53
10 8 6 7 10 17 24 30 37 42 47 55 60 63 64 65 62 61 65 66 59 56 52 51 51 46 40 34 29 26 24 24 26 26 25 26 28 33 39 44 48 52 55 55
13 13 19 29 37 42 46 50 55 59 61 61 61 62 63 63 58 58 57 58 53 51 48 44 41 36 30 26 23 22 21 25 25 26 25 26 31 36 41 46 51 53 55 57
35 38 37 40 44 49 52 54 58 63 65 63 62 60 61 60 59 59 56 49 47 43 42 37 32 27 24 22 21 20 24 23 25 23 25 29 34 40 45 50 53 57 61 65
47 46 49 50 54 58 63 61 63 64 64 61 58 56 55 54 53 53 53 49 45 40 34 30 27 25 23 20 21 24 24 25 22 24 28 32 37 43 48 53 58 62 68 72
48 51 51 53 58 61 61 60 61 57 54 54 51 52 52 51 51 49 45 40 35 31 27 25 25 23 22 23 26 27 25 23 22 25 30 35 40 46 50 57 64 70 72 69
50 51 51 50 48 45 45 43 45 44 46 48 44 45 45 45 44 42 39 33 28 27 26 24 24 23 26 29 27 25 22 21 22 27 33 38 44 49 57 63 64 64 64 65
50 47 42 38 34 36 37 40 47 48 47 48 49 46 43 39 36 34 31 28 27 27 26 26 25 27 29 27 25 22 20 21 24 30 36 42 48 55 58 58 59 61 63 63
Wind_Direction_850mb
110 51 47 104 155 156 179 184 144 188 156 205 202 163 170 174 173 171 173 180 190 198 199 203 207 206 212 218 235 244 284 304 310 317 321 324 328 330 333 335 336 336 335 334
27 22 76 99 164 140 122 123 80 107 80 135 98 119 137 161 176 182 189 201 211 211 209 207 206 208 216 227 228 272 303 312 320 323 327 329 330 331 332 333 335 339 341 342
98 353 27 5 210 173 131 142 139 156 189 157 138 134 146 152 174 194 206 214 218 217 214 208 207 214 224 229 266 301 313 319 323 324 321 320 324 329 335 339 341 340 340 340
142 300 130 245 281 271 140 154 136 106 134 155 165 157 164 175 180 198 213 220 222 216 207 204 209 218 226 257 295 305 310 312 311 310 314 321 328 333 335 336 337 338 339 341
129 146 291 323 207 159 151 232 199 139 135 138 142 148 207 209 214 216 219 215 211 202 202 205 213 226 249 276 292 299 300 300 306 312 319 327 329 327 329 330 333 337 338 338
133 118 181 249 195 160 87 285 190 181 170 158 153 168 243 196 190 188 181 180 186 191 197 211 226 242 270 288 293 291 297 304 311 319 321 321 321 322 325 327 329 333 336 335
82 113 288 245 166 144 107 243 158 184 178 166 157 183 160 168 164 165 171 181 187 197 207 218 243 269 282 287 285 292 303 311 316 316 314 314 315 317 321 325 327 329 331 331
81 72 281 170 110 172 209 134 138 136 139 144 135 136 152 166 178 186 194 197 199 205 223 251 268 278 282 282 290 306 312 311 307 304 307 311 315 318 321 322 323 324 324 325
172 201 280 183 269 236 152 144 140 135 133 134 136 148 166 184 203 208 205 210 217 236 256 270 277 282 283 293 301 303 299 296 299 306 312 315 316 317 317 319 320 320 322 324
70 265 243 210 200 151 152 149 148 148 143 143 148 179 207 221 225 226 225 231 246 261 273 279 281 275 279 282 289 292 295 301 305 308 311 313 311 312 314 316 317 320 323 326
271 255 264 236 206 173 160 162 171 180 205 232 222 232 246 244 244 244 247 252 262 271 275 277 271 269 276 284 290 292 296 298 300 303 305 307 309 311 313 316 318 322 324 327
214 204 109 182 193 191 196 202 211 231 242 250 248 258 254 252 253 254 255 256 263 267 273 277 270 272 277 281 287 291 292 294 296 300 303 305 305 307 312 314 317 320 323 326
51 86 127 135 129 151 192 222 236 238 239 244 257 272 272 267 262 260 255 254 258 273 274 273 270 272 275 281 286 287 288 290 294 297 299 301 303 304 304 308 314 318 322 324
227 202 197 170 179 187 221 219 221 247 267 286 287 281 276 269 264 258 256 261 268 270 275 274 271 275 276 279 282 284 286 289 293 294 296 298 301 303 306 311 313 313 320 325
232 228 234 217 230 244 252 251 257 266 276 279 278 279 273 274 272 271 263 267 271 273 280 280 277 275 275 279 283 285 287 288 288 289 293 296 300 305 309 312 312 316 320 320
195 217 228 237 250 258 255 262 269 274 278 276 274 272 275 273 271 269 265 269 273 280 280 275 275 276 276 278 281 283 283 284 284 287 289 293 299 302 304 306 311 318 323 323
218 215 215 237 260 273 274 271 276 286 282 283 296 284 273 273 275 279 281 279 276 276 275 274 273 270 270 275 280 279 279 279 281 283 286 292 293 297 300 307 315 320 323 327
207 171 120 195 257 271 275 277 278 284 290 288 281 285 287 288 291 290 284 274 270 271 272 272 270 266 270 276 277 277 277 276 277 277 281 284 289 294 302 310 314 318 323 327
201 218 249 267 278 282 288 293 293 289 290 290 289 292 292 290 292 288 280 274 272 273 277 274 268 267 271 273 273 273 271 271 271 273 277 284 287 293 301 307 313 317 319 322
206 235 254 274 283 292 295 302 299 302 310 308 306 303 299 297 292 287 282 279 279 279 278 272 268 268 269 268 265 262 261 261 265 272 281 283 288 297 304 308 313 317 320 321
64 41 7 342 329 324 314 306 303 303 300 300 298 297 296 296 297 292 289 288 290 282 275 270 269 269 267 262 260 257 254 258 267 274 273 277 288 297 304 310 315 317 318 320
61 11 336 319 311 306 305 303 300 298 299 301 302 303 301 301 299 295 292 289 286 279 274 272 270 265 260 257 251 247 252 260 265 263 269 284 293 299 307 312 314 314 317 322
328 323 318 312 307 303 297 296 297 298 300 303 303 303 301 300 297 294 292 286 281 277 273 268 262 255 251 243 236 246 253 258 258 265 278 289 298 307 312 314 315 318 321 322
317 312 307 302 297 296 298 301 301 302 303 303 302 302 300 297 292 289 287 285 282 279 273 262 253 245 234 230 240 242 248 250 258 273 286 297 305 311 314 316 319 321 320 319
298 296 296 296 297 301 302 303 305 310 309 307 305 300 298 297 296 295 290 285 280 269 258 248 237 221 233 234 233 244 241 246 263 281 295 303 310 313 315 319 322 321 319 317
301 299 301 300 301 302 304 307 307 310 307 308 308 303 301 297 295 292 288 282 270 258 250 236 219 229 226 229 237 232 240 258 277 292 302 309 314 318 323 323 320 317 316 317
303 307 305 304 306 307 314 320 321 324 322 320 319 317 311 305 301 293 282 270 258 247 232 219 230 225 230 231 225 232 250 271 290 301 309 314 321 324 322 319 317 319 320 322